Powrót do katalogu

FENGYUN 1C DEB

AktywnySSO
NORAD 37899·DEBRIS·🇨🇳 China

Wystrzelony May 10, 1999 z Taiyuan Satellite Launch Center

Loading…

Następne Przeloty (najbliższe 24 godziny)

TLE

NieaktualneSource: Space-Track

Epoka: Sep 2, 2026, 08:09 UTC

1 37899U 99025EMY 26245.33968424  .00001503  00000-0  12128-2 0  9994
2 37899  98.7866  86.0959 0205881 344.5677  14.9261 13.82447264593123

Śledź FENGYUN 1C DEB w czasie rzeczywistym z AllMySat

Download on the App Store